C/2017 M4 ( ATLAS )

Japanese version
Home page
Updated on October 22, 2018

---------------------------------------------------------------------

* Profile

Discovery Date June 21, 2017
Magnitude 18.3 mag
Discoverer Asteroid Terrestrial-impact Last Alert System (ATLAS) Team

* Pictures

* Orbital Elements

Epoch 2019 Feb. 6.0 TT = JDT 2458520.5
T 2019 Jan. 18.19052 TT                                 MPCW
q   3.2517445            (2000.0)            P               Q
z  -0.0007082      Peri.  167.62230     -0.34655544     -0.32821601
 +/-0.0000003      Node    65.86708     -0.92163421     +0.29352194
e   1.0023030      Incl.  105.65769     -0.17461304     -0.89784137
From 2516 observations 2017 June 16-2018 Sept. 18, mean residual 0".4.

* Finding Charts

* Magnitudes Graph

        m1 = 6.0 + 5 log d + 10.0 log r

---------------------------------------------------------------------

The orbital elements are published on M.P.E.C. 2018-S50.
The charts are made with StellaNavigator Ver.10 (AstroArts).
The magnitudes graphs are made with Comet for Windows.

---------------------------------------------------------------------

Copyright(C) Seiichi Yoshida (comet@aerith.net). All rights reserved.